DW6169 Weather Reports


Display with metric or nautical units.
time (UTC)temp
F
wind
direction
speed
MPH
gust
MPH
rain 1hr
in
rain 24hr
in
rain mn
in
humidity
%
barometer
mb
20260902235100 85 0 0.0 4.0 0.00 1.04 1.04 77 1014.3
20260902234606 85 0 0.0 4.0 0.00 1.04 1.04 76 1014.2
20260902234102 85 0 0.0 3.0 0.00 1.04 1.04 76 1014.1
20260902233559 85 0 0.0 3.0 0.00 1.04 1.04 76 1014.0
20260902233108 86 123 0.0 1.0 0.00 1.04 1.04 76 1014.1
20260902232559 86 0 0.0 1.0 0.00 1.04 1.04 75 1014.1
20260902232058 86 0 0.0 2.0 0.00 1.04 1.04 75 1014.2
20260902231606 86 0 0.0 3.0 0.00 1.04 1.04 74 1014.4
20260902231102 86 0 0.0 3.0 0.00 1.04 1.04 74 1014.5
20260902230603 87 0 0.0 6.0 0.00 1.04 1.04 74 1014.4
20260902230120 87 0 0.0 6.0 0.00 1.04 1.04 73 1014.1
20260902225559 87 150 1.0 6.0 0.00 1.04 1.04 73 1013.9
20260902225100 87 202 0.0 4.0 0.00 1.04 1.04 72 1014.1
20260902224607 87 0 0.0 4.0 0.00 1.04 1.04 72 1014.0
20260902224059 88 153 0.0 3.0 0.00 1.04 1.04 72 1013.9
20260902223600 88 144 0.0 3.0 0.00 1.04 1.04 71 1013.9
20260902223110 89 0 0.0 3.0 0.00 1.04 1.04 70 1013.8
20260902222559 89 0 0.0 4.0 0.00 1.04 1.04 70 1013.9
20260902222100 90 105 0.0 6.0 0.00 1.04 1.04 69 1014.0
20260902221608 90 146 0.0 6.0 0.00 1.04 1.04 69 1014.0
20260902221059 90 107 1.0 4.0 0.00 1.04 1.04 69 1013.9
20260902220559 91 0 1.0 6.0 0.00 1.04 1.04 69 1013.9
20260902220123 91 131 0.0 6.0 0.00 1.04 1.04 68 1013.8
20260902215558 91 153 2.0 5.0 0.00 1.04 1.04 68 1013.9
20260902215100 91 0 0.0 4.0 0.00 1.04 1.04 67 1014.0
20260902214637 91 0 0.0 3.0 0.00 1.04 1.04 66 1013.9
20260902214058 91 0 0.0 6.0 0.00 1.04 1.04 68 1013.9
20260902213601 91 0 1.0 7.0 0.00 1.04 1.04 68 1014.0
20260902213107 91 0 1.0 7.0 0.00 1.04 1.04 67 1014.1
20260902212558 91 0 0.0 8.0 0.00 1.04 1.04 67 1014.0
20260902212058 91 148 1.0 8.0 0.00 1.04 1.04 68 1014.1
20260902211605 92 92 1.0 5.0 0.00 1.04 1.04 67 1014.0
20260902211058 92 0 0.0 4.0 0.00 1.04 1.04 67 1013.9
20260902210559 91 0 0.0 4.0 0.00 1.04 1.04 68 1013.9
20260902210136 91 92 1.0 6.0 0.00 1.04 1.04 67 1013.9
20260902205557 91 82 1.0 6.0 0.00 1.04 1.04 68 1013.7
20260902205057 92 65 0.0 3.0 0.00 1.04 1.04 68 1013.5
20260902204604 92 0 0.0 3.0 0.00 1.04 1.04 68 1013.7
20260902204059 91 0 0.0 4.0 0.00 1.04 1.04 69 1013.7
20260902203558 91 0 0.0 4.0 0.00 1.04 1.04 70 1013.9
20260902203107 90 0 0.0 4.0 0.00 1.04 1.04 71 1013.9
20260902202559 90 0 0.0 4.0 0.00 1.04 1.04 72 1013.9
20260902202058 89 0 0.0 4.0 0.00 1.04 1.04 74 1014.0
20260902201627 88 0 0.0 3.0 0.00 1.04 1.04 75 1014.2
20260902201102 87 0 0.0 3.0 0.00 1.04 1.04 77 1014.2
20260902200558 87 0 0.0 6.0 0.00 1.04 1.04 78 1014.2
20260902200112 86 0 0.0 6.0 0.00 1.04 1.04 80 1014.3
20260902195559 86 0 0.0 3.0 0.00 1.41 1.04 81 1014.4
20260902195057 85 0 0.0 2.0 0.00 1.41 1.04 82 1014.4
20260902194603 85 0 0.0 2.0 0.00 1.41 1.04 82 1014.4
20260902194101 85 0 0.0 2.0 0.00 1.41 1.04 82 1014.5
20260902193557 84 0 0.0 2.0 0.00 1.41 1.04 82 1014.6
20260902193107 84 0 0.0 2.0 0.00 1.41 1.04 82 1014.5
20260902192558 84 0 0.0 2.0 0.00 1.41 1.04 82 1014.7
20260902192101 84 0 0.0 1.0 0.00 1.41 1.04 82 1014.9
20260902191605 84 0 0.0 1.0 0.00 1.41 1.04 82 1015.0
20260902191058 84 0 0.0 1.0 0.00 1.41 1.04 81 1014.9
20260902190559 84 0 0.0 1.0 0.00 1.41 1.04 80 1015.1
20260902190128 84 0 0.0 1.0 0.00 1.41 1.04 79 1015.3
20260902185558 84 0 0.0 3.0 0.00 1.45 1.04 78 1015.5
20260902185058 84 0 0.0 3.0 0.00 1.45 1.04 78 1015.5
20260902184611 84 0 0.0 2.0 0.00 1.45 1.04 78 1015.5
20260902184059 84 0 0.0 0.0 0.00 1.45 1.04 77 1015.3
20260902183558 84 0 0.0 2.0 0.00 1.45 1.04 78 1015.3
20260902183113 85 0 0.0 6.0 0.01 1.45 1.04 78 1015.4
20260902182557 85 250 2.0 6.0 0.02 1.45 1.04 79 1015.3
20260902182058 85 256 1.0 5.0 0.05 1.45 1.04 81 1015.3
20260902181624 85 0 0.0 3.0 0.15 1.45 1.04 84 1015.4
20260902181100 84 0 0.0 3.0 0.49 1.45 1.04 85 1015.3
20260902180559 83 0 0.0 3.0 0.79 1.45 1.04 86 1015.3
20260902175558 82 0 0.0 4.0 1.04 1.45 1.04 85 1015.5
20260902175059 82 96 1.0 4.0 1.04 1.45 1.04 85 1015.7
20260902174606 83 99 0.0 4.0 1.04 1.45 1.04 87 1015.8
20260902174058 82 102 1.0 4.0 1.04 1.45 1.04 85 1015.7
20260902173558 81 59 2.0 6.0 1.04 1.45 1.04 84 1015.8
20260902173109 81 103 1.0 8.0 1.04 1.44 1.04 83 1015.9
20260902172557 81 93 3.0 8.0 1.03 1.43 1.03 82 1015.8
20260902172101 82 82 2.0 8.0 1.00 1.40 1.00 79 1015.9
20260902171621 83 120 3.0 7.0 0.90 1.30 0.90 77 1016.2
20260902171102 86 108 1.0 5.0 0.55 0.95 0.55 74 1016.4
20260902170559 87 253 1.0 5.0 0.25 0.65 0.25 73 1016.3
20260902170103 88 221 0.0 4.0 0.00 0.40 0.00 71 1016.1
20260902165558 88 0 0.0 7.0 0.00 0.40 0.00 70 1016.0
20260902165101 88 98 0.0 7.0 0.00 0.40 0.00 70 1016.1
20260902164607 88 157 0.0 6.0 0.00 0.40 0.00 69 1016.1
20260902164058 89 0 2.0 8.0 0.00 0.40 0.00 69 1016.2
20260902163602 89 32 2.0 8.0 0.00 0.40 0.00 69 1016.2
20260902163103 89 85 0.0 4.0 0.00 0.40 0.00 70 1016.2
20260902162600 89 156 0.0 4.0 0.00 0.40 0.00 70 1016.2
20260902162102 88 0 1.0 4.0 0.00 0.40 0.00 70 1016.1
20260902161605 88 101 2.0 6.0 0.00 0.40 0.00 70 1016.2
20260902161058 89 132 1.0 8.0 0.00 0.40 0.00 69 1016.2
20260902160558 89 67 2.0 8.0 0.00 0.40 0.00 68 1016.2
20260902160106 90 84 3.0 7.0 0.00 0.40 0.00 68 1016.2
20260902155558 91 17 1.0 7.0 0.00 0.40 0.00 68 1016.3
20260902155058 91 103 0.0 8.0 0.00 0.40 0.00 68 1016.3
20260902154605 91 44 3.0 8.0 0.00 0.40 0.00 67 1016.4
20260902154058 91 99 2.0 4.0 0.00 0.40 0.00 68 1016.4
20260902153557 91 0 1.0 4.0 0.00 0.40 0.00 69 1016.5
20260902153104 90 0 0.0 0.0 0.00 0.40 0.00 68 1016.6
20260902152559 90 0 0.0 3.0 0.00 0.40 0.00 69 1016.5
20260902152101 89 0 0.0 3.0 0.00 0.40 0.00 68 1016.6
20260902151607 89 88 0.0 3.0 0.00 0.40 0.00 68 1016.7
20260902151059 89 0 0.0 3.0 0.00 0.40 0.00 70 1016.6
20260902150558 89 0 0.0 1.0 0.00 0.40 0.00 71 1016.6
20260902150113 88 0 0.0 2.0 0.00 0.40 0.00 71 1016.5
20260902145558 88 0 0.0 2.0 0.00 0.40 0.00 71 1016.6
20260902145058 88 0 0.0 0.0 0.00 0.40 0.00 71 1016.6
20260902144647 88 0 0.0 1.0 0.00 0.40 0.00 72 1016.5
20260902144059 87 0 0.0 4.0 0.00 0.40 0.00 73 1016.5
20260902143558 87 0 0.0 4.0 0.00 0.40 0.00 74 1016.5
20260902143103 87 0 1.0 4.0 0.00 0.40 0.00 76 1016.5
20260902142559 86 0 0.0 5.0 0.00 0.40 0.00 78 1016.4
20260902142101 86 15 2.0 5.0 0.00 0.40 0.00 80 1016.4
20260902141604 85 0 0.0 2.0 0.00 0.40 0.00 84 1016.4
20260902141059 84 0 0.0 2.0 0.00 0.40 0.00 85 1016.4
20260902140559 83 0 0.0 2.0 0.00 0.40 0.00 86 1016.4
20260902140105 82 0 0.0 1.0 0.00 0.40 0.00 88 1016.4
20260902135559 82 0 0.0 1.0 0.00 0.40 0.00 88 1016.2
20260902135059 82 0 0.0 2.0 0.00 0.40 0.00 89 1016.3
20260902134620 82 0 0.0 2.0 0.00 0.40 0.00 89 1016.3
20260902134058 81 0 0.0 3.0 0.00 0.40 0.00 89 1016.2
20260902133559 81 0 0.0 3.0 0.00 0.40 0.00 89 1016.3
20260902133102 81 5 0.0 3.0 0.00 0.40 0.00 90 1016.3
20260902132600 80 0 0.0 0.0 0.00 0.40 0.00 89 1016.4
20260902132059 80 0 0.0 0.0 0.00 0.40 0.00 90 1016.4
20260902131601 80 0 0.0 0.0 0.00 0.40 0.00 89 1016.4
20260902131059 80 0 0.0 0.0 0.00 0.40 0.00 89 1016.3
20260902130558 79 0 0.0 0.0 0.00 0.40 0.00 90 1016.3
20260902130106 79 0 0.0 0.0 0.00 0.40 0.00 89 1016.4
20260902125603 79 0 0.0 0.0 0.00 0.40 0.00 89 1016.4
20260902125100 79 0 0.0 0.0 0.00 0.40 0.00 89 1016.4
20260902124602 78 0 0.0 0.0 0.00 0.40 0.00 89 1016.2
20260902124102 78 0 0.0 0.0 0.00 0.40 0.00 89 1016.0
20260902123602 78 0 0.0 0.0 0.00 0.40 0.00 89 1016.0
20260902123102 78 0 0.0 0.0 0.00 0.40 0.00 89 1016.1
20260902122600 78 0 0.0 1.0 0.00 0.40 0.00 89 1016.0
20260902122100 78 0 0.0 2.0 0.00 0.40 0.00 89 1015.8
20260902121602 78 0 0.0 2.0 0.00 0.40 0.00 89 1015.8
20260902121100 77 0 0.0 0.0 0.00 0.40 0.00 89 1015.8
20260902120600 77 0 0.0 0.0 0.00 0.40 0.00 89 1015.7
20260902120107 77 0 0.0 0.0 0.00 0.40 0.00 89 1015.7
20260902115559 77 0 0.0 0.0 0.00 0.40 0.00 89 1015.9
20260902115104 77 0 0.0 0.0 0.00 0.40 0.00 89 1015.9
20260902114604 77 0 0.0 0.0 0.00 0.40 0.00 88 1015.9
20260902114102 76 0 0.0 0.0 0.00 0.40 0.00 88 1015.9
20260902113600 77 0 0.0 0.0 0.00 0.40 0.00 88 1015.9
20260902113110 77 0 0.0 0.0 0.00 0.40 0.00 88 1015.9
20260902112558 76 0 0.0 0.0 0.00 0.40 0.00 88 1016.0
20260902112059 76 0 0.0 0.0 0.00 0.40 0.00 88 1016.0
20260902111605 76 0 0.0 0.0 0.00 0.40 0.00 88 1016.0
20260902111100 76 0 0.0 0.0 0.00 0.40 0.00 88 1015.7
20260902110602 76 0 0.0 0.0 0.00 0.40 0.00 88 1015.8
20260902110105 76 0 0.0 0.0 0.00 0.40 0.00 88 1015.7
20260902105559 76 0 0.0 0.0 0.00 0.40 0.00 88 1015.5
20260902105059 76 0 0.0 0.0 0.00 0.40 0.00 88 1015.4
20260902104601 76 0 0.0 0.0 0.00 0.40 0.00 88 1015.4
20260902104100 76 0 0.0 0.0 0.00 0.40 0.00 88 1015.4
20260902103558 76 0 0.0 0.0 0.00 0.40 0.00 88 1015.3
20260902103108 76 0 0.0 0.0 0.00 0.40 0.00 88 1015.3
20260902102559 77 0 0.0 0.0 0.00 0.40 0.00 88 1015.4
20260902102100 77 0 0.0 0.0 0.00 0.40 0.00 88 1015.4
20260902101600 77 0 0.0 0.0 0.00 0.40 0.00 88 1015.4
20260902101100 77 0 0.0 0.0 0.00 0.40 0.00 88 1015.5
20260902100559 77 0 0.0 0.0 0.00 0.40 0.00 88 1015.5
20260902095558 77 0 0.0 0.0 0.00 0.40 0.00 88 1015.2
20260902095100 76 0 0.0 0.0 0.00 0.40 0.00 88 1014.9
20260902094605 76 0 0.0 0.0 0.00 0.40 0.00 88 1014.9
20260902094059 76 0 0.0 0.0 0.00 0.40 0.00 88 1014.9
20260902093559 77 0 0.0 0.0 0.00 0.40 0.00 88 1015.0
20260902093104 77 0 0.0 0.0 0.00 0.40 0.00 88 1014.8
20260902092601 77 0 0.0 0.0 0.00 0.40 0.00 88 1014.7
20260902092059 77 0 0.0 0.0 0.00 0.40 0.00 88 1014.8
20260902091605 77 0 0.0 0.0 0.00 0.40 0.00 88 1014.7
20260902091102 77 0 0.0 0.0 0.00 0.40 0.00 88 1014.7
20260902090604 77 0 0.0 0.0 0.00 0.40 0.00 88 1014.7
20260902090104 77 0 0.0 0.0 0.00 0.40 0.00 88 1014.8
20260902085559 77 0 0.0 0.0 0.00 0.40 0.00 87 1014.5
20260902085059 77 0 0.0 0.0 0.00 0.40 0.00 87 1014.6
20260902084614 77 0 0.0 0.0 0.00 0.40 0.00 87 1014.6
20260902084103 77 0 0.0 0.0 0.00 0.40 0.00 87 1014.6
20260902083559 77 0 0.0 0.0 0.00 0.40 0.00 87 1014.6
20260902083105 77 0 0.0 0.0 0.00 0.40 0.00 87 1014.7
20260902082600 77 0 0.0 0.0 0.00 0.40 0.00 87 1014.8
20260902082057 77 0 0.0 0.0 0.00 0.40 0.00 87 1014.7
20260902081610 77 0 0.0 0.0 0.00 0.40 0.00 87 1014.8
20260902081059 77 0 0.0 0.0 0.00 0.40 0.00 87 1014.8
20260902080600 77 0 0.0 0.0 0.00 0.40 0.00 87 1014.7
20260902075559 77 0 0.0 0.0 0.00 0.40 0.00 87 1014.7
20260902075103 77 0 0.0 0.0 0.00 0.40 0.00 87 1014.7
20260902074617 77 0 0.0 0.0 0.00 0.40 0.00 87 1014.9
20260902074100 77 0 0.0 0.0 0.00 0.40 0.00 87 1014.9
20260902073559 77 0 0.0 0.0 0.00 0.40 0.00 87 1014.9
20260902073104 77 0 0.0 0.0 0.00 0.40 0.00 87 1014.8
20260902072601 77 0 0.0 0.0 0.00 0.40 0.00 87 1014.9
20260902072103 77 0 0.0 0.0 0.00 0.40 0.00 87 1014.8
20260902071601 77 0 0.0 0.0 0.00 0.40 0.00 87 1014.9
20260902071059 77 0 0.0 0.0 0.00 0.40 0.00 87 1015.1
20260902070558 77 0 0.0 0.0 0.00 0.40 0.00 87 1015.1
20260902070106 77 0 0.0 0.0 0.00 0.40 0.00 87 1015.1
20260902065559 77 0 0.0 0.0 0.00 0.40 0.00 87 1015.1
20260902065100 77 0 0.0 0.0 0.00 0.40 0.00 87 1015.3
20260902064604 77 0 0.0 0.0 0.00 0.40 0.00 87 1015.2
20260902064101 77 0 0.0 0.0 0.00 0.40 0.00 87 1015.3
20260902063559 77 0 0.0 0.0 0.00 0.40 0.00 86 1015.3
20260902063117 77 0 0.0 0.0 0.00 0.40 0.00 86 1015.4
20260902062559 77 0 0.0 0.0 0.00 0.40 0.00 86 1015.3
20260902062059 77 0 0.0 0.0 0.00 0.40 0.00 86 1015.3
20260902061110 77 0 0.0 0.0 0.00 0.40 0.00 86 1015.4
20260902060600 77 0 0.0 0.0 0.00 0.40 0.00 86 1015.4
20260902060126 77 0 0.0 0.0 0.00 0.40 0.00 86 1015.5
20260902055559 77 0 0.0 0.0 0.00 0.41 0.00 86 1015.5
20260902055100 77 0 0.0 0.0 0.00 0.41 0.00 86 1015.6
20260902054610 77 0 0.0 0.0 0.00 0.41 0.00 86 1015.5
20260902054059 77 0 0.0 0.0 0.00 0.41 0.00 86 1015.5
20260902053559 78 0 0.0 0.0 0.00 0.41 0.00 86 1015.6
20260902053111 78 0 0.0 0.0 0.00 0.41 0.00 86 1015.6
20260902052559 78 0 0.0 0.0 0.00 0.41 0.00 86 1015.5
20260902052059 78 0 0.0 0.0 0.00 0.41 0.00 86 1015.5
20260902051608 78 0 0.0 0.0 0.00 0.41 0.00 86 1015.6
20260902051100 78 0 0.0 0.0 0.00 0.41 0.00 86 1015.6
20260902050600 78 0 0.0 0.0 0.00 0.41 0.00 86 1015.6
20260902050105 78 0 0.0 1.0 0.00 0.41 0.00 86 1015.8
20260902045559 78 0 0.0 1.0 0.00 0.41 0.00 85 1015.6
20260902045059 78 0 0.0 0.0 0.00 0.41 0.00 85 1015.6
20260902044610 78 0 0.0 0.0 0.00 0.41 0.00 85 1015.6
20260902044057 78 0 0.0 2.0 0.00 0.41 0.00 85 1015.6
20260902043557 78 0 0.0 2.0 0.00 0.41 0.00 85 1015.6
20260902043113 78 0 0.0 0.0 0.00 0.41 0.00 85 1015.7
20260902042600 78 0 0.0 0.0 0.00 0.41 0.00 85 1015.8
20260902042059 78 0 0.0 0.0 0.00 0.41 0.00 85 1015.9
20260902041608 78 0 0.0 0.0 0.00 0.41 0.00 85 1016.0
20260902041059 78 0 0.0 0.0 0.00 0.41 0.00 85 1016.1
20260902040559 78 0 0.0 0.0 0.00 0.41 0.00 84 1016.0
20260902040108 78 0 0.0 0.0 0.00 0.41 0.00 84 1016.0
20260902035559 78 0 0.0 0.0 0.00 0.41 0.41 84 1016.2
20260902035059 78 0 0.0 0.0 0.00 0.41 0.41 84 1016.1
20260902034614 78 0 0.0 1.0 0.00 0.41 0.41 84 1016.3
20260902034058 78 0 0.0 1.0 0.00 0.41 0.41 84 1016.4
20260902033559 78 0 0.0 1.0 0.00 0.41 0.41 84 1016.6
20260902033107 78 0 0.0 1.0 0.00 0.41 0.41 84 1016.6
20260902032559 78 0 0.0 0.0 0.00 0.41 0.41 84 1016.6
20260902032059 78 0 0.0 0.0 0.00 0.41 0.41 84 1016.6
20260902031606 78 0 0.0 1.0 0.00 0.41 0.41 84 1016.4
20260902031102 78 0 0.0 1.0 0.00 0.41 0.41 84 1016.4
20260902030638 79 352 0.0 0.0 0.00 0.41 0.41 83 1016.6
20260902030105 79 0 0.0 0.0 0.00 0.41 0.41 83 1016.7
20260902025600 79 0 0.0 0.0 0.00 0.41 0.41 83 1016.4
20260902025102 79 0 0.0 0.0 0.00 0.41 0.41 83 1016.4
20260902024601 79 0 0.0 0.0 0.00 0.41 0.41 83 1016.4
20260902024057 79 0 0.0 2.0 0.00 0.41 0.41 83 1016.5
20260902023559 79 0 0.0 2.0 0.00 0.41 0.41 83 1016.4
20260902023108 79 0 0.0 0.0 0.00 0.41 0.41 83 1016.4
20260902022558 79 0 0.0 1.0 0.00 0.41 0.41 83 1016.4
20260902022102 79 0 0.0 1.0 0.00 0.41 0.41 83 1016.3
20260902021609 79 0 0.0 1.0 0.00 0.41 0.41 82 1016.3
20260902021059 79 0 0.0 0.0 0.00 0.41 0.41 82 1016.3
20260902020558 79 0 0.0 0.0 0.00 0.41 0.41 82 1016.2
20260902020103 79 0 0.0 0.0 0.00 0.41 0.41 82 1016.1
20260902015557 79 0 0.0 0.0 0.00 0.41 0.41 82 1016.3
20260902015059 79 0 0.0 0.0 0.00 0.41 0.41 82 1016.2
20260902014607 79 0 0.0 0.0 0.00 0.41 0.41 82 1016.3
20260902014058 79 0 0.0 0.0 0.00 0.41 0.41 82 1016.2
20260902013559 79 0 0.0 0.0 0.00 0.41 0.41 82 1016.1
20260902013106 79 0 0.0 0.0 0.00 0.41 0.41 81 1015.9
20260902012558 79 0 0.0 0.0 0.00 0.41 0.41 81 1015.9
20260902012058 79 0 0.0 1.0 0.00 0.41 0.41 81 1015.8
20260902011602 79 0 0.0 1.0 0.00 0.41 0.41 81 1015.8
20260902011058 79 0 0.0 0.0 0.00 0.41 0.41 81 1015.9
20260902010557 79 0 0.0 0.0 0.00 0.41 0.41 81 1015.8
20260902010106 80 0 0.0 5.0 0.00 0.41 0.41 81 1015.7
20260902005557 80 0 0.0 5.0 0.00 0.41 0.41 81 1015.9
20260902005100 80 236 2.0 6.0 0.00 0.41 0.41 81 1015.9
20260902004609 80 0 1.0 6.0 0.00 0.41 0.41 80 1015.9
20260902004058 80 254 1.0 5.0 0.00 0.41 0.41 80 1015.7
20260902003600 80 232 1.0 4.0 0.00 0.41 0.41 80 1015.6
20260902003135 81 267 1.0 4.0 0.00 0.41 0.41 79 1015.5
20260902002601 81 240 0.0 4.0 0.00 0.41 0.41 79 1015.6
20260902002058 81 252 0.0 7.0 0.00 0.41 0.41 79 1015.4
20260902001606 81 257 0.0 7.0 0.00 0.41 0.41 78 1015.6
20260902001056 82 251 1.0 6.0 0.00 0.41 0.41 78 1015.7
20260902000558 82 0 0.0 1.0 0.00 0.41 0.41 78 1015.7
20260902000105 82 0 0.0 1.0 0.00 0.41 0.41 78 1015.6
20260901235601 83 0 0.0 1.0 0.00 0.41 0.41 78 1015.8